Location: Blandford
(50.8667°N, 2.1667°W)
Time: 23:55:16
(UTC+00:00)

Cosmos 1340 Rocket - Pass Details

Date: 09 April 2020
Orbit: 529 x 559 km, 81.2° (Epoch: 03 June)

Event Time Altitude Azimuth Distance (km) Brightness Sun altitude
Rises 20:41:00 0° 209° (SSW) 2,727 6.3 -15.9°
Reaches altitude 10° 20:43:16 10° 217° (SW) 1,833 5.5 -16.2°
Maximum altitude 20:47:05 41° 288° (WNW) 817 4.2 -16.7°
Drops below altitude 10° 20:50:56 10° 360° (N) 1,831 6.0 -17.2°
Sets 20:53:12 0° 8° (N) 2,724 6.8 -17.5°
